Location: Marineo
(37.9500°N, 13.4170°E)
Time: 06:38:36
(UTC+02:00)

ISS - Pass Details

Date: 26 January 2019
Orbit: 411 x 421 km, 51.6° (Epoch: 16 October)

Event Time Altitude Azimuth Distance (km) Brightness Sun altitude
Rises 19:05:48 0° 286° (WNW) 2,367 1.2 -20.4°
Reaches altitude 10° 19:09:02 10° 319° (NW) 1,506 -0.5 -21.0°
Maximum altitude 19:10:23 12° 343° (NNW) 1,395 -1.0 -21.3°
Enters shadow 19:10:42 12° 349° (N) 1,401 -1.1 -21.4°
